TimePST,TemperatureF,Dew PointF,Humidity,Sea Level PressureIn,VisibilityMPH,Wind Direction,Wind SpeedMPH,Gust SpeedMPH,PrecipitationIn,Events,Conditions,WindDirDegrees,DateUTC
12:00 AM,43.7,37.2,78,30.26,-9999.0,North,28.8,-,N/A,,Unknown,0,2013-02-26 08:00:00
1:00 AM,43.7,37.6,79,30.26,-9999.0,North,29.9,-,N/A,,Unknown,0,2013-02-26 09:00:00
2:00 AM,43.7,37.8,80,30.27,-9999.0,North,29.9,-,N/A,,Unknown,0,2013-02-26 10:00:00
3:00 AM,43.9,35.2,72,30.27,-9999.0,North,32.2,-,N/A,,Unknown,0,2013-02-26 11:00:00
4:00 AM,43,37,73,30.28,,Calm,Calm,,,,,260,2013-02-26 12:00:00
4:00 AM,43.2,37.2,80,30.28,-9999.0,North,29.9,-,N/A,,Unknown,0,2013-02-26 12:00:00
5:00 AM,43.3,36.7,77,30.28,-9999.0,North,31.1,-,N/A,,Unknown,0,2013-02-26 13:00:00
6:00 AM,43.0,36.9,79,30.28,-9999.0,North,31.1,-,N/A,,Unknown,0,2013-02-26 14:00:00
7:00 AM,41.4,36.1,82,30.29,-9999.0,North,35.7,-,N/A,,Unknown,0,2013-02-26 15:00:00
8:00 AM,42.8,36.7,79,30.28,-9999.0,North,10.4,-,N/A,,Unknown,0,2013-02-26 16:00:00
9:00 AM,43.0,35.8,76,30.28,-9999.0,North,11.5,-,N/A,,Unknown,0,2013-02-26 17:00:00
10:00 AM,43,36,67,30.26,,Calm,Calm,,,,,100,2013-02-26 18:00:00
10:00 AM,43.3,35.8,75,30.26,-9999.0,North,11.5,-,N/A,,Unknown,0,2013-02-26 18:00:00
11:00 AM,43.3,37.2,79,30.24,-9999.0,North,13.8,-,N/A,,Unknown,0,2013-02-26 19:00:00
12:00 PM,43.0,36.7,78,30.25,-9999.0,North,13.8,-,N/A,,Unknown,0,2013-02-26 20:00:00
1:00 PM,43.7,36.7,76,30.22,-9999.0,North,17.3,-,N/A,,Unknown,0,2013-02-26 21:00:00
2:00 PM,42.8,35.8,76,30.21,-9999.0,North,26.5,-,N/A,,Unknown,0,2013-02-26 22:00:00
3:00 PM,41.7,37.9,86,30.18,-9999.0,North,8.1,-,0.02,,Unknown,0,2013-02-26 23:00:00
4:00 PM,42,38,82,30.16,,Calm,Calm,,,,,0,2013-02-27 00:00:00
4:00 PM,41.9,38.3,87,30.16,-9999.0,Calm,Calm,-,N/A,,Unknown,0,2013-02-27 00:00:00
5:00 PM,41.2,38.3,89,30.14,-9999.0,North,4.6,-,0.03,,Unknown,0,2013-02-27 01:00:00
6:00 PM,41.0,35.6,81,30.13,-9999.0,North,4.6,-,N/A,,Unknown,0,2013-02-27 02:00:00
7:00 PM,41.4,32.9,72,30.11,-9999.0,North,2.3,-,N/A,,Unknown,0,2013-02-27 03:00:00
8:00 PM,44.6,31.5,60,30.10,-9999.0,North,33.4,-,N/A,,Unknown,0,2013-02-27 04:00:00
9:00 PM,41.4,35.6,80,30.12,-9999.0,North,34.5,-,N/A,,Unknown,0,2013-02-27 05:00:00
10:00 PM,41,37,81,30.13,,Calm,Calm,,,,,310,2013-02-27 06:00:00
10:00 PM,41.2,37.2,86,30.13,-9999.0,North,35.7,-,0.04,,Unknown,0,2013-02-27 06:00:00
11:00 PM,43.3,37.8,81,30.14,-9999.0,North,29.9,-,N/A,,Unknown,0,2013-02-27 07:00:00